Regional Weather Roundup
Issued by NWS Sterling, VA

Home | Current Version | Previous Version | Graphics & Text | Print | Product List | Glossary On
Versions: 1 2 3 4 5 6 7 8 9 10 11 12 13 14 15 16 17 18 19 20 21 22 23 24 25 26 27 28 29 30 31 32 33 34 35 36 37 38 39 40 41 42 43 44 45 46 47 48
000
ASUS41 KLWX 251710
RWRLWX

REGIONAL WEATHER ROUNDUP
NATIONAL WEATHER SERVICE BALTIMORE MD/WASHINGTON DC
1200 PM EST SUN JAN 25 2015

Note: "FAIR" indicates few or no clouds below 12,000 feet
with no significant weather and/or obstructions to visibility.
 TC=TEMPERATURE CELSIUS

 * =Non NWS site. Station does not report precipitation (e.g. rain,
    snow, etc.), thunder, or fog.

DCZ001-MDZ009-015-VAZ040>042-051-053>054-251800-
WASHINGTON METRO

CITY           SKY/WX    TMP DP  RH WIND       PRES   REMARKS
WASHINGTON NAT PTSUNNY   51  29  42 W14G22    29.85F
DULLES         CLOUDY    45  29  53 VRB5      29.84F
ANDREWS AFB    PTSUNNY   47  30  50 W13G22    29.84F
FT BELVOIR     PTSUNNY   46  30  53 S8        29.87R
QUANTICO       CLOUDY    41  34  76 S12       29.88F
COLLEGE PARK*  PTSUNNY   50  30  46 W10G20    29.83F
LEESBURG*      PTSUNNY   45  34  65 SW3       29.84F
MANASSAS*      MOSUNNY   45  30  57 VRB5      29.86S
GAITHERSBURG*  PTSUNNY   43  28  56 W7        29.85F

$$

MDZ006>007-011-014-251800-
BALTIMORE METRO

CITY           SKY/WX    TMP DP  RH WIND       PRES   REMARKS
BWI AIRPORT    PTSUNNY   47  30  51 W10       29.83F
MD SCIENCE CTR   N/A     48  30  49 MISG      29.85F
MARTIN STATE   PTSUNNY   48  34  57 W9        29.85F
ANNAPOLIS      PTSUNNY   47  29  49 NW8       29.83F
FORT MEADE*    PTSUNNY   46  32  57 W9G16     29.85F

$$

MDZ012-015-019>023-251800-
MARYLAND EASTERN SHORE

CITY           SKY/WX    TMP DP  RH WIND       PRES   REMARKS
OCEAN CITY     SUNNY     47  33  58 SW10      29.87F
SALISBURY      MOSUNNY   48  30  49 W15       29.88S
BAY BRIDGE AP*   N/A     46  30  53 W3        29.84F
CAMBRIDGE*     MOSUNNY   46  32  57 SW5       29.87S
EASTON*        SUNNY     48  32  53 SW8       29.89S

$$

MDZ017>025-251800-
SOUTHERN MARYLAND

CITY           SKY/WX    TMP DP  RH WIND       PRES   REMARKS
PATUXENT RIVER PTSUNNY   47  30  51 SW14      29.88S
ST INIGOES     MOSUNNY   45  32  60 S9        29.89S
LEONARDTOWN*   MOSUNNY   45  30  57 SW12      29.89S

$$

MDZ003>005-251800-
NORTH CENTRAL MARYLAND

CITY           SKY/WX    TMP DP  RH WIND       PRES   REMARKS
FREDERICK*     CLOUDY    46  28  49 W3        29.85F
HAGERSTOWN APT CLOUDY    41  30  65 S5        29.81F
WESTMINSTER*   CLOUDY    39  32  75 W7        29.81F

$$

MDZ501>502-251800-
WESTERN MARYLAND

CITY           SKY/WX    TMP DP  RH WIND       PRES   REMARKS
OAKLAND*       FOG       32 N/A N/A SW6       29.74S VSB 1
CUMBERLAND*    CLOUDY    43  32  65 W5        29.85F

$$

VAZ025>031-251800-
SHENANDOAH VALLEY

CITY           SKY/WX    TMP DP  RH WIND       PRES   REMARKS
WINCHESTER*    PTSUNNY   43  27  52 SW8G17    29.82F
FRONT ROYAL*   FAIR      41  32  70 SW5       29.82F
LURAY*         CLOUDY    43  32  65 SW7       29.83F
NEW MARKET*    FAIR      41  31  68 SW5       29.82F
STAUNTON*      CLOUDY    41  31  66 S6        29.84F
WAYNESBORO*    FAIR      39  30  69 W6        29.83F

$$

WVZ021-048>050-054>055-251800-
EASTERN WEST VIRGINIA PANHANDLE

CITY           SKY/WX    TMP DP  RH WIND       PRES   REMARKS
MARTINSBURG    PTSUNNY   45  30  55 SW7       29.82F
PETERSBURG*    CLOUDY    46  29  52 S6        29.80F

$$

VAZ036>039-050-251800-
CENTRAL FOOTHILLS

CITY           SKY/WX    TMP DP  RH WIND       PRES   REMARKS
CHARLOTTESVILL CLOUDY    40  30  67 S7        29.84F
CULPEPER*      CLOUDY    45  32  61 S5        29.86F
ORANGE*        CLOUDY    43  32  65 CALM      29.87F
GORDONSVILLE*  PTSUNNY   40  31  68 SW3       29.85F
WARRENTON*     FAIR      45  36  72 S5        29.86S

$$

VAZ055>057-251800-
NORTH AND CENTRAL PIEDMONT

CITY           SKY/WX    TMP DP  RH WIND       PRES   REMARKS
FREDERICKSBRG* CLOUDY    46  32  59 SW9       29.88F
STAFFORD*      CLOUDY    44  29  55 CALM      29.92S

$$

NCZ024-NYZ072-PAZ021-071-VAZ022-071-251800-
OTHER REGIONAL OBSERVATIONS

CITY           SKY/WX    TMP DP  RH WIND       PRES   REMARKS
NEW YORK CITY  MOSUNNY   41  14  33 VRB3G26   29.77R
PHILADELPHIA   PTSUNNY   44  31  60 W14       29.83S
PITTSBURGH     LGT SNOW  34  32  92 W6        29.80S FOG
ROANOKE        CLOUDY    44  29  55 SW10      29.87F
RICHMOND       PTSUNNY   50  31  48 SW7       29.89F
RALEIGH        MOSUNNY   50  32  50 SW8       29.93F

$$

ANZ530>537-251800-
MARINE OBSERVATIONS

STATION/POSITION TIME  TEMP    WIND        PRES
                       AIR SEA DIR/SP/G
                 (UTC) (F)     (DEG/KT/KT) (MB)
THOMAS PT LIGHT  1700   41 37  170/  7/ 10 1011.6F
BALT KEY BRIDGE  1700   45     260/ 11/ 12 1010.1F
COVE POINT       1700   45     260/ 10/ 12 1011.2F
LEWISETTA        1700   45 38  260/ 10/ 11 1011.9F
SOLOMONS ISLAND  1700      38                N/A
PINEY POINT      1700          260/  4/  4   N/A

$$




USA.gov is the U.S. government's official web portal to all federal, state and local government web resources and services.